Cumberland, WV

11:01 PM EDT on October 15, 2019 (GMT -0400)
Greater Cumberland Regional

Weather History for KCBE - September, 2019

Change the Weather History Date:

Friday, September 20, 2019

  Actual Average (KMRB) Record (KMRB)
Temperature  
Mean Temperature 63 °F -  
Max Temperature 82 °F 77 °F 93 °F (1942)
Min Temperature 44 °F 54 °F 38 °F (1956)
Degree Days  
Heating Degree Days 2    
Growing Degree Days 13 (Base 50)    
Moisture  
Dew Point 51 °F    
Average Humidity 71    
Maximum Humidity 97    
Minimum Humidity 39    
Precipitation  
Precipitation 0.00 in - - ()
Sea Level Pressure  
Sea Level Pressure 30.29 in    
Wind  
Wind Speed 1 mph ()    
Max Wind Speed 7 mph    
Max Gust Speed -    
Visibility 9.8 miles    
Events      
Averages and records for this station are not official NWS values.
T = Trace of Precipitation, MM = Missing Value Source: Averaged Metar Reports

Daily Weather History Graph

Daily Weather History Graph

Search for Another Location

Airport or City:

Astronomy

Sep. 20, 2019 Rise Set
Actual Time 7:00 AM EDT 7:15 PM EDT
Civil Twilight 6:33 AM EDT 7:42 PM EDT
Nautical Twilight 6:02 AM EDT 8:14 PM EDT
Astronomical Twilight 5:29 AM EDT 8:46 PM EDT
Moon 11:05 PM EDT (9/20) 1:02 PM EDT (9/20)
Length of Visible Light 13h 09m
Length of Day
12h 15m
Waning Gibbous, 65% of the Moon is Illuminated
Sep 20
Waning Gibbous
Sep 21
Last Quarter
Sep 28
New
Oct 5
First Quarter
Oct 13
Full

Hourly Weather History & Observations

Time (EDT) Temp. Heat Index Dew Point Humidity Pressure Visibility Wind Dir Wind Speed Gust Speed Precip Events Conditions
12:00 AM 53.6 °F - 47.8 °F 81% 30.31 in 10.0 mi WSW 4.6 mph - N/A   Clear
12:20 AM 54.1 °F - 48.2 °F 80% 30.31 in 10.0 mi WSW 3.5 mph - N/A   Clear
12:40 AM 52.7 °F - 47.8 °F 84% 30.32 in 10.0 mi Calm Calm - N/A   Clear
1:00 AM 51.8 °F - 47.5 °F 85% 30.31 in 10.0 mi WSW 5.8 mph - N/A   Clear
1:20 AM 51.1 °F - 47.3 °F 87% 30.31 in 10.0 mi Calm Calm - N/A   Clear
1:40 AM 50.2 °F - 48.2 °F 93% 30.31 in 10.0 mi Calm Calm - N/A   Clear
2:00 AM 48.6 °F - 46.6 °F 93% 30.31 in 10.0 mi Calm Calm - N/A   Clear
2:20 AM 48.9 °F - 47.3 °F 94% 30.31 in 10.0 mi Calm Calm - N/A   Clear
2:40 AM 49.6 °F - 47.5 °F 92% 30.32 in 10.0 mi Calm Calm - N/A   Clear
3:00 AM 48.0 °F - 46.6 °F 95% 30.32 in 10.0 mi Calm Calm - N/A   Clear
3:20 AM 48.0 °F - 46.4 °F 94% 30.32 in 10.0 mi WSW 3.5 mph - N/A   Clear
3:40 AM 48.2 °F - 46.6 °F 94% 30.31 in 10.0 mi WSW 3.5 mph - N/A   Clear
4:00 AM 48.0 °F - 46.2 °F 93% 30.32 in 10.0 mi Calm Calm - N/A   Clear
4:20 AM 47.3 °F - 46.0 °F 95% 30.32 in 10.0 mi Calm Calm - N/A   Clear
4:40 AM 46.8 °F - 45.1 °F 94% 30.32 in 10.0 mi Calm Calm - N/A   Clear
5:00 AM 46.4 °F - 45.3 °F 96% 30.32 in 10.0 mi Calm Calm - N/A   Clear
5:20 AM 45.9 °F - 45.0 °F 97% 30.32 in 10.0 mi Calm Calm - N/A   Clear
5:40 AM 46.2 °F - 45.1 °F 96% 30.32 in 10.0 mi Calm Calm - N/A   Clear
6:00 AM 45.3 °F - 44.1 °F 95% 30.32 in 10.0 mi Calm Calm - N/A   Clear
6:20 AM 45.1 °F - 44.1 °F 96% 30.33 in 10.0 mi Calm Calm - N/A   Clear
6:40 AM 44.4 °F - 43.3 °F 96% 30.33 in 5.0 mi Calm Calm - N/A   Clear
7:00 AM 44.1 °F - 43.3 °F 97% 30.34 in 0.8 mi Calm Calm - N/A   Overcast
7:20 AM 44.8 °F - 44.1 °F 97% 30.35 in 10.0 mi Calm Calm - N/A   Scattered Clouds
7:40 AM 44.8 °F - 44.1 °F 97% 30.36 in 10.0 mi Calm Calm - N/A   Clear
8:20 AM 49.1 °F - 46.8 °F 92% 30.36 in 10.0 mi Calm Calm - N/A   Clear
8:40 AM 50.5 °F - 47.3 °F 89% 30.36 in 10.0 mi Calm Calm - N/A   Clear
9:00 AM 51.8 °F - 47.8 °F 86% 30.36 in 10.0 mi Calm Calm - N/A   Clear
9:20 AM 53.2 °F - 48.6 °F 84% 30.36 in 10.0 mi Calm Calm - N/A   Clear
9:40 AM 54.9 °F - 48.9 °F 80% 30.36 in 10.0 mi Calm Calm - N/A   Clear
10:00 AM 57.0 °F - 49.8 °F 77% 30.36 in 10.0 mi Calm Calm - N/A   Clear
10:20 AM 58.6 °F - 48.9 °F 70% 30.36 in 10.0 mi WSW 4.6 mph - N/A   Clear
10:40 AM 60.6 °F - 50.0 °F 68% 30.35 in 10.0 mi WSW 4.6 mph - N/A   Clear
11:00 AM 61.9 °F - 50.5 °F 66% 30.34 in 10.0 mi WSW 4.6 mph - N/A   Clear
11:20 AM 63.5 °F - 50.5 °F 63% 30.33 in 10.0 mi WSW 3.5 mph - N/A   Clear
11:40 AM 66.2 °F - 50.9 °F 58% 30.32 in 10.0 mi WSW 6.9 mph - N/A   Clear
12:00 PM 67.6 °F - 50.4 °F 54% 30.31 in 10.0 mi WSW 5.8 mph - N/A   Clear
12:20 PM 70.3 °F - 51.4 °F 51% 30.30 in 10.0 mi Calm Calm - N/A   Clear
12:40 PM 71.8 °F - 50.9 °F 48% 30.30 in 10.0 mi Calm Calm - N/A   Clear
1:00 PM 74.1 °F - 51.1 °F 44% 30.29 in 10.0 mi WSW 3.5 mph - N/A   Clear
1:20 PM 74.3 °F - 51.4 °F 45% 30.28 in 10.0 mi WSW 4.6 mph - N/A   Clear
1:40 PM 76.6 °F - 52.5 °F 43% 30.27 in 10.0 mi WSW 3.5 mph - N/A   Clear
2:00 PM 77.7 °F - 53.6 °F 43% 30.26 in 10.0 mi Calm Calm - N/A   Clear
2:20 PM 78.4 °F - 53.6 °F 42% 30.25 in 10.0 mi WSW 3.5 mph - N/A   Clear
2:40 PM 79.3 °F - 54.0 °F 41% 30.24 in 10.0 mi Calm Calm - N/A   Clear
3:00 PM 79.9 °F - 54.1 °F 41% 30.23 in 10.0 mi WSW 3.5 mph - N/A   Clear
3:20 PM 81.0 °F 80.6 °F 54.7 °F 40% 30.23 in 10.0 mi Calm Calm - N/A   Clear
3:40 PM 81.1 °F 80.8 °F 54.7 °F 40% 30.22 in 10.0 mi Calm Calm - N/A   Clear
4:00 PM 82.6 °F 81.8 °F 55.2 °F 39% 30.22 in 10.0 mi WSW 4.6 mph - N/A   Clear
4:20 PM 82.4 °F 81.7 °F 55.0 °F 39% 30.21 in 10.0 mi Calm Calm - N/A   Clear
4:40 PM 82.2 °F 81.5 °F 55.2 °F 39% 30.21 in 10.0 mi Calm Calm - N/A   Clear
5:00 PM 82.4 °F 81.7 °F 55.4 °F 39% 30.21 in 10.0 mi Calm Calm - N/A   Clear
5:20 PM 82.9 °F 82.1 °F 55.4 °F 39% 30.21 in 10.0 mi Calm Calm - N/A   Clear
5:40 PM 82.6 °F 81.8 °F 55.6 °F 39% 30.21 in 10.0 mi Calm Calm - N/A   Clear
6:20 PM 82.8 °F 82.0 °F 55.8 °F 39% 30.21 in 10.0 mi Calm Calm - N/A   Clear
6:40 PM 81.7 °F 81.4 °F 56.5 °F 42% 30.22 in 10.0 mi Calm Calm - N/A   Clear
7:00 PM 75.2 °F - 57.0 °F 53% 30.22 in 10.0 mi Calm Calm - N/A   Clear
7:20 PM 75.0 °F - 57.0 °F 53% 30.22 in 10.0 mi Calm Calm - N/A   Clear
7:40 PM 73.4 °F - 56.7 °F 56% 30.23 in 10.0 mi Calm Calm - N/A   Clear
8:00 PM 70.3 °F - 57.6 °F 64% 30.23 in 10.0 mi Calm Calm - N/A   Clear
8:20 PM 68.0 °F - 58.6 °F 72% 30.23 in 10.0 mi Calm Calm - N/A   Clear
8:40 PM 67.1 °F - 57.7 °F 72% 30.24 in 10.0 mi Calm Calm - N/A   Clear
9:00 PM 68.4 °F - 58.1 °F 70% 30.25 in 10.0 mi Calm Calm - N/A   Clear
9:20 PM 68.2 °F - 57.9 °F 70% 30.26 in 10.0 mi Calm Calm - N/A   Clear
9:40 PM 64.8 °F - 57.9 °F 78% 30.26 in 10.0 mi Calm Calm - N/A   Clear
10:00 PM 66.0 °F - 58.1 °F 76% 30.26 in 10.0 mi WSW 3.5 mph - N/A   Clear
10:20 PM 62.8 °F - 57.9 °F 84% 30.26 in - WSW 4.6 mph - N/A   Clear
10:40 PM 63.7 °F - 57.9 °F 81% 30.27 in 10.0 mi Calm Calm - N/A   Clear
11:00 PM 62.4 °F - 57.2 °F 83% 30.27 in 10.0 mi WSW 4.6 mph - N/A   Clear
11:20 PM 62.8 °F - 57.6 °F 83% 30.27 in 10.0 mi Calm Calm - N/A   Clear
11:40 PM 61.7 °F - 57.4 °F 86% 30.27 in 10.0 mi WSW 3.5 mph - N/A   Clear